Time,TemperatureF,DewpointF,PressureIn,WindDirection,WindDirectionDegrees,WindSpeedMPH,WindSpeedGustMPH,Humidity,HourlyPrecipIn,Conditions,Clouds,dailyrainin,SoftwareType,DateUTC
2013-04-12 00:02:00,32.7,31.6,29.42,NE,45,0.0,8.9,96,0.02,,,0.00,WUHU216HW,2013-04-12 05:02:00,
2013-04-12 00:07:00,32.7,31.6,29.42,ENE,68,0.0,8.9,96,0.02,,,0.00,WUHU216HW,2013-04-12 05:07:00,
2013-04-12 00:12:00,32.7,31.6,29.42,ENE,68,10.7,10.7,96,0.02,,,0.00,WUHU216HW,2013-04-12 05:12:00,
2013-04-12 00:17:00,32.7,31.6,29.42,ENE,68,5.3,10.7,96,0.02,,,0.00,WUHU216HW,2013-04-12 05:17:00,
2013-04-12 00:22:00,32.7,31.6,29.42,NE,43,2.8,6.9,96,0.00,,,0.00,WUHU216HW,2013-04-12 05:22:00,
2013-04-12 00:27:00,32.7,31.6,29.41,NE,45,5.1,7.3,96,0.00,,,0.00,WUHU216HW,2013-04-12 05:27:00,
2013-04-12 00:33:00,32.7,31.6,29.41,NE,45,5.1,11.6,96,0.00,,,0.00,WUHU216HW,2013-04-12 05:33:00,
2013-04-12 00:38:00,32.7,31.6,29.41,ENE,57,8.7,11.6,96,0.00,,,0.00,WUHU216HW,2013-04-12 05:38:00,
2013-04-12 00:42:00,32.7,31.6,29.41,NE,45,2.2,8.9,96,0.00,,,0.00,WUHU216HW,2013-04-12 05:42:00,
2013-04-12 00:47:00,32.7,31.6,29.41,ENE,68,2.9,8.2,96,0.00,,,0.00,WUHU216HW,2013-04-12 05:47:00,
2013-04-12 00:52:00,32.7,31.6,29.41,ENE,60,4.4,10.9,96,0.00,,,0.00,WUHU216HW,2013-04-12 05:52:00,
2013-04-12 00:58:00,32.5,31.4,29.41,East,90,6.3,10.9,96,0.00,,,0.00,WUHU216HW,2013-04-12 05:58:00,
2013-04-12 01:03:00,32.7,31.6,29.41,ENE,68,3.8,10.9,96,0.00,,,0.00,WUHU216HW,2013-04-12 06:03:00,
2013-04-12 01:08:00,32.5,31.4,29.40,ENE,57,7.8,10.9,96,0.00,,,0.00,WUHU216HW,2013-04-12 06:08:00,
2013-04-12 01:13:00,32.7,31.6,29.40,NE,45,1.5,10.2,96,0.02,,,0.02,WUHU216HW,2013-04-12 06:13:00,
2013-04-12 01:18:00,32.5,31.4,29.40,NE,45,5.4,8.7,96,0.02,,,0.02,WUHU216HW,2013-04-12 06:18:00,
2013-04-12 01:23:00,32.5,31.4,29.40,East,90,6.7,9.8,96,0.02,,,0.02,WUHU216HW,2013-04-12 06:23:00,
2013-04-12 01:28:00,32.5,31.4,29.40,ENE,68,3.3,9.8,96,0.02,,,0.02,WUHU216HW,2013-04-12 06:28:00,
2013-04-12 01:33:00,32.5,31.4,29.40,NE,45,8.9,8.9,96,0.02,,,0.02,WUHU216HW,2013-04-12 06:33:00,
2013-04-12 01:38:00,32.5,31.4,29.39,NE,45,1.5,8.9,96,0.02,,,0.02,WUHU216HW,2013-04-12 06:38:00,
2013-04-12 01:43:00,32.5,31.4,29.39,ENE,58,3.8,5.3,96,0.02,,,0.02,WUHU216HW,2013-04-12 06:43:00,
2013-04-12 01:48:00,32.5,31.4,29.39,NE,45,8.7,8.7,96,0.02,,,0.02,WUHU216HW,2013-04-12 06:48:00,
2013-04-12 01:53:00,32.5,31.4,29.39,ENE,62,5.3,8.7,96,0.02,,,0.02,WUHU216HW,2013-04-12 06:53:00,
2013-04-12 01:58:00,32.5,31.4,29.38,NE,45,4.5,7.8,96,0.02,,,0.02,WUHU216HW,2013-04-12 06:58:00,
2013-04-12 02:03:00,32.5,31.4,29.38,ENE,58,7.1,8.0,96,0.02,,,0.02,WUHU216HW,2013-04-12 07:03:00,
2013-04-12 02:08:00,32.5,31.4,29.39,NE,45,4.0,8.0,96,0.00,,,0.02,WUHU216HW,2013-04-12 07:08:00,
2013-04-12 02:13:00,32.7,31.6,29.39,NE,45,4.6,8.2,96,0.00,,,0.02,WUHU216HW,2013-04-12 07:13:00,
2013-04-12 02:19:00,32.5,31.4,29.38,ENE,68,8.0,8.5,96,0.00,,,0.02,WUHU216HW,2013-04-12 07:19:00,
2013-04-12 02:24:00,32.5,31.4,29.38,NE,45,5.2,8.5,96,0.00,,,0.02,WUHU216HW,2013-04-12 07:24:00,
2013-04-12 02:29:00,32.5,31.4,29.38,NE,45,7.2,8.9,96,0.00,,,0.02,WUHU216HW,2013-04-12 07:29:00,
2013-04-12 02:34:00,32.5,31.4,29.38,NE,38,7.0,9.1,96,0.00,,,0.02,WUHU216HW,2013-04-12 07:34:00,
2013-04-12 02:39:00,32.5,31.4,29.37,NE,39,4.8,9.1,96,0.00,,,0.02,WUHU216HW,2013-04-12 07:39:00,
2013-04-12 02:44:00,32.5,31.4,29.37,ENE,68,7.1,10.7,96,0.00,,,0.02,WUHU216HW,2013-04-12 07:44:00,
2013-04-12 02:49:00,32.5,31.4,29.37,East,80,5.9,10.7,96,0.00,,,0.02,WUHU216HW,2013-04-12 07:49:00,
2013-04-12 02:54:00,32.5,31.4,29.37,NE,45,0.0,8.0,96,0.00,,,0.02,WUHU216HW,2013-04-12 07:54:00,
2013-04-12 02:59:00,32.5,31.4,29.37,ENE,68,5.5,7.6,96,0.00,,,0.02,WUHU216HW,2013-04-12 07:59:00,
2013-04-12 03:04:00,32.3,31.3,29.36,NE,45,2.0,5.5,96,0.00,,,0.02,WUHU216HW,2013-04-12 08:04:00,
2013-04-12 03:09:00,32.3,31.3,29.36,ENE,68,3.1,3.5,96,0.00,,,0.02,WUHU216HW,2013-04-12 08:09:00,
2013-04-12 03:14:00,32.5,31.4,29.36,ENE,68,7.8,7.8,96,0.00,,,0.02,WUHU216HW,2013-04-12 08:14:00,
2013-04-12 03:19:00,32.3,31.3,29.36,NNE,23,3.5,7.8,96,0.00,,,0.02,WUHU216HW,2013-04-12 08:19:00,
2013-04-12 03:24:00,32.5,31.4,29.36,ENE,64,6.0,10.9,96,0.00,,,0.02,WUHU216HW,2013-04-12 08:24:00,
2013-04-12 03:29:00,32.5,31.4,29.36,ENE,67,3.0,10.9,96,0.00,,,0.02,WUHU216HW,2013-04-12 08:29:00,
2013-04-12 03:34:00,32.5,31.4,29.36,NE,45,3.7,7.1,96,0.00,,,0.02,WUHU216HW,2013-04-12 08:34:00,
2013-04-12 03:39:00,32.5,31.4,29.36,ENE,60,5.9,9.8,96,0.00,,,0.02,WUHU216HW,2013-04-12 08:39:00,
2013-04-12 03:44:00,32.5,31.4,29.36,NE,45,6.7,9.8,96,0.00,,,0.02,WUHU216HW,2013-04-12 08:44:00,
2013-04-12 03:49:00,32.5,31.4,29.36,ENE,68,6.4,9.6,96,0.00,,,0.02,WUHU216HW,2013-04-12 08:49:00,
2013-04-12 03:54:00,32.5,31.4,29.36,ENE,68,1.5,6.4,96,0.00,,,0.02,WUHU216HW,2013-04-12 08:54:00,
2013-04-12 03:59:00,32.5,31.4,29.36,ENE,68,3.1,6.4,96,0.00,,,0.02,WUHU216HW,2013-04-12 08:59:00,
2013-04-12 04:05:00,32.7,31.6,29.35,ENE,68,6.9,6.9,96,0.00,,,0.02,WUHU216HW,2013-04-12 09:05:00,
2013-04-12 04:10:00,32.7,31.6,29.35,NE,45,7.1,7.1,96,0.00,,,0.02,WUHU216HW,2013-04-12 09:10:00,
2013-04-12 04:15:00,32.7,31.6,29.35,NE,45,3.1,7.1,96,0.00,,,0.02,WUHU216HW,2013-04-12 09:15:00,
2013-04-12 04:20:00,32.7,31.6,29.35,ENE,68,6.4,8.9,96,0.00,,,0.02,WUHU216HW,2013-04-12 09:20:00,
2013-04-12 04:25:00,32.7,31.6,29.35,ENE,68,4.2,8.9,96,0.00,,,0.02,WUHU216HW,2013-04-12 09:25:00,
2013-04-12 04:30:00,32.7,31.6,29.35,NE,45,0.6,6.2,96,0.00,,,0.02,WUHU216HW,2013-04-12 09:30:00,
2013-04-12 04:35:00,32.7,31.6,29.35,NE,45,5.5,6.2,96,0.00,,,0.02,WUHU216HW,2013-04-12 09:35:00,
2013-04-12 04:40:00,32.7,31.6,29.34,NE,45,7.6,8.5,96,0.00,,,0.02,WUHU216HW,2013-04-12 09:40:00,
2013-04-12 04:45:00,32.7,31.6,29.34,ENE,73,2.8,8.5,96,0.00,,,0.02,WUHU216HW,2013-04-12 09:45:00,
2013-04-12 04:50:00,32.7,31.6,29.34,NE,45,5.5,6.4,96,0.00,,,0.02,WUHU216HW,2013-04-12 09:50:00,
2013-04-12 04:55:00,32.7,31.6,29.34,East,90,6.2,6.2,96,0.00,,,0.02,WUHU216HW,2013-04-12 09:55:00,
2013-04-12 05:00:00,32.7,31.6,29.34,NE,45,6.3,8.0,96,0.00,,,0.02,WUHU216HW,2013-04-12 10:00:00,
2013-04-12 05:05:00,32.5,31.4,29.34,ENE,68,7.1,8.0,96,0.00,,,0.02,WUHU216HW,2013-04-12 10:05:00,
2013-04-12 05:11:00,32.5,31.4,29.34,East,90,7.3,7.3,96,0.00,,,0.02,WUHU216HW,2013-04-12 10:11:00,
2013-04-12 05:16:00,32.5,31.4,29.34,NE,45,1.1,7.3,96,0.00,,,0.02,WUHU216HW,2013-04-12 10:16:00,
2013-04-12 05:21:00,32.5,31.4,29.34,NE,45,2.6,8.2,96,0.00,,,0.02,WUHU216HW,2013-04-12 10:21:00,
2013-04-12 05:26:00,32.3,31.3,29.34,ENE,68,5.3,8.2,96,0.00,,,0.02,WUHU216HW,2013-04-12 10:26:00,
2013-04-12 05:32:00,32.3,31.3,29.34,East,90,6.7,6.7,96,0.00,,,0.02,WUHU216HW,2013-04-12 10:32:00,
2013-04-12 05:37:00,32.3,31.3,29.35,NE,45,2.3,6.7,96,0.00,,,0.02,WUHU216HW,2013-04-12 10:37:00,
2013-04-12 05:42:00,32.3,31.3,29.35,NNE,23,3.5,4.4,96,0.00,,,0.02,WUHU216HW,2013-04-12 10:42:00,
2013-04-12 05:47:00,32.3,31.3,29.33,NE,45,0.0,4.4,96,0.00,,,0.02,WUHU216HW,2013-04-12 10:47:00,
2013-04-12 05:52:00,32.3,31.3,29.34,NNE,23,7.1,7.1,96,0.00,,,0.02,WUHU216HW,2013-04-12 10:52:00,
2013-04-12 05:57:00,32.3,31.3,29.34,NE,45,6.7,7.1,96,0.00,,,0.02,WUHU216HW,2013-04-12 10:57:00,
2013-04-12 06:02:00,32.3,31.3,29.34,NE,45,0.4,6.7,96,0.00,,,0.02,WUHU216HW,2013-04-12 11:02:00,
2013-04-12 06:07:00,32.3,31.3,29.34,NE,45,2.0,6.7,96,0.00,,,0.02,WUHU216HW,2013-04-12 11:07:00,
2013-04-12 06:12:00,32.3,31.3,29.34,ENE,68,5.5,6.7,96,0.00,,,0.02,WUHU216HW,2013-04-12 11:12:00,
2013-04-12 06:17:00,32.3,31.3,29.34,NE,45,3.8,10.5,96,0.00,,,0.02,WUHU216HW,2013-04-12 11:17:00,
2013-04-12 06:22:00,32.1,31.3,29.34,NE,45,3.3,10.5,96,0.00,,,0.02,WUHU216HW,2013-04-12 11:22:00,
2013-04-12 06:27:00,32.3,31.3,29.34,NE,45,5.1,5.1,96,0.00,,,0.02,WUHU216HW,2013-04-12 11:27:00,
2013-04-12 06:32:00,32.1,31.3,29.34,NE,45,10.0,10.0,96,0.00,,,0.02,WUHU216HW,2013-04-12 11:32:00,
2013-04-12 06:37:00,32.3,31.3,29.34,NE,45,4.6,10.0,96,0.00,,,0.02,WUHU216HW,2013-04-12 11:37:00,
2013-04-12 06:43:00,32.3,31.3,29.34,NE,45,3.3,5.1,96,0.00,,,0.02,WUHU216HW,2013-04-12 11:43:00,
2013-04-12 06:48:00,32.3,31.3,29.33,NNE,23,5.8,6.2,96,0.00,,,0.02,WUHU216HW,2013-04-12 11:48:00,
2013-04-12 06:53:00,32.1,31.1,29.34,NNE,23,4.9,6.2,96,0.00,,,0.02,WUHU216HW,2013-04-12 11:53:00,
2013-04-12 06:58:00,32.3,31.3,29.34,NE,45,3.1,6.0,96,0.00,,,0.02,WUHU216HW,2013-04-12 11:58:00,
2013-04-12 07:03:00,32.3,31.3,29.35,NE,45,0.0,6.7,96,0.00,,,0.02,WUHU216HW,2013-04-12 12:03:00,
2013-04-12 07:08:00,32.3,31.3,29.34,NE,34,3.3,6.7,96,0.00,,,0.02,WUHU216HW,2013-04-12 12:08:00,
2013-04-12 07:13:00,32.3,31.3,29.34,East,90,3.3,4.9,96,0.00,,,0.02,WUHU216HW,2013-04-12 12:13:00,
2013-04-12 07:18:00,32.3,31.3,29.34,NE,45,4.0,4.0,96,0.00,,,0.02,WUHU216HW,2013-04-12 12:18:00,
2013-04-12 07:23:00,32.3,31.3,29.34,NE,45,1.5,7.8,96,0.00,,,0.02,WUHU216HW,2013-04-12 12:23:00,
2013-04-12 07:28:00,32.3,31.4,29.34,NE,45,6.2,7.8,96,0.00,,,0.02,WUHU216HW,2013-04-12 12:28:00,
2013-04-12 07:33:00,32.5,31.4,29.34,ENE,68,7.8,7.8,96,0.00,,,0.02,WUHU216HW,2013-04-12 12:33:00,
2013-04-12 07:38:00,32.5,31.4,29.35,NE,45,6.4,7.8,96,0.00,,,0.02,WUHU216HW,2013-04-12 12:38:00,
2013-04-12 07:44:00,32.5,31.4,29.35,NE,45,4.9,11.4,96,0.00,,,0.02,WUHU216HW,2013-04-12 12:44:00,
2013-04-12 07:49:00,32.7,31.6,29.35,NE,45,3.3,11.4,96,0.00,,,0.02,WUHU216HW,2013-04-12 12:49:00,
2013-04-12 07:54:00,32.7,31.6,29.34,NNE,23,1.5,9.1,96,0.00,,,0.02,WUHU216HW,2013-04-12 12:54:00,
2013-04-12 07:59:00,32.7,31.6,29.35,NE,45,4.9,4.9,96,0.00,,,0.02,WUHU216HW,2013-04-12 12:59:00,
2013-04-12 08:04:00,32.9,31.8,29.35,NNE,33,3.8,5.5,96,0.00,,,0.02,WUHU216HW,2013-04-12 13:04:00,
2013-04-12 08:09:00,32.9,32.0,29.36,ENE,68,2.2,6.9,96,0.00,,,0.02,WUHU216HW,2013-04-12 13:09:00,
2013-04-12 08:14:00,32.9,31.8,29.36,NE,45,2.9,6.9,96,0.00,,,0.02,WUHU216HW,2013-04-12 13:14:00,
2013-04-12 08:19:00,33.0,32.0,29.36,NE,45,2.4,5.1,96,0.00,,,0.02,WUHU216HW,2013-04-12 13:19:00,
2013-04-12 08:24:00,33.0,32.0,29.35,NNE,23,0.0,5.1,96,0.00,,,0.02,WUHU216HW,2013-04-12 13:24:00,
2013-04-12 08:29:00,33.2,32.1,29.36,NNE,23,0.0,3.5,96,0.00,,,0.02,WUHU216HW,2013-04-12 13:29:00,
2013-04-12 08:34:00,33.4,32.3,29.36,NNE,23,4.6,4.6,96,0.00,,,0.02,WUHU216HW,2013-04-12 13:34:00,
2013-04-12 08:39:00,33.2,32.1,29.35,NNE,23,1.3,4.6,96,0.00,,,0.02,WUHU216HW,2013-04-12 13:39:00,
2013-04-12 08:44:00,33.0,32.1,29.36,NNE,23,1.5,1.5,96,0.00,,,0.02,WUHU216HW,2013-04-12 13:44:00,
2013-04-12 08:49:00,33.2,32.3,29.36,NE,45,0.0,1.5,96,0.00,,,0.02,WUHU216HW,2013-04-12 13:49:00,
2013-04-12 08:54:00,33.4,32.3,29.36,NNE,23,4.9,4.9,96,0.00,,,0.02,WUHU216HW,2013-04-12 13:54:00,
2013-04-12 08:59:00,33.4,32.3,29.36,NE,45,0.0,4.9,96,0.00,,,0.02,WUHU216HW,2013-04-12 13:59:00,
2013-04-12 09:04:00,33.6,32.5,29.36,North,0,3.3,3.8,96,0.02,,,0.04,WUHU216HW,2013-04-12 14:04:00,
2013-04-12 09:09:00,33.6,32.5,29.36,NNE,23,4.0,4.0,96,0.02,,,0.04,WUHU216HW,2013-04-12 14:09:00,
2013-04-12 09:14:00,33.6,32.5,29.36,NE,45,0.0,4.0,96,0.02,,,0.04,WUHU216HW,2013-04-12 14:14:00,
2013-04-12 09:19:00,33.6,32.5,29.36,North,0,5.3,5.3,96,0.02,,,0.04,WUHU216HW,2013-04-12 14:19:00,
2013-04-12 09:25:00,33.6,32.5,29.36,NE,44,4.4,5.3,96,0.02,,,0.04,WUHU216HW,2013-04-12 14:25:00,
2013-04-12 09:30:00,33.4,32.3,29.36,NE,45,2.2,5.5,96,0.02,,,0.04,WUHU216HW,2013-04-12 14:30:00,
2013-04-12 09:35:00,33.6,32.5,29.36,North,0,1.5,5.5,96,0.02,,,0.04,WUHU216HW,2013-04-12 14:35:00,
2013-04-12 09:40:00,33.8,32.7,29.36,NE,45,3.8,5.1,96,0.04,,,0.06,WUHU216HW,2013-04-12 14:40:00,
2013-04-12 09:45:00,33.9,32.9,29.36,NE,45,6.9,6.9,96,0.04,,,0.06,WUHU216HW,2013-04-12 14:45:00,
2013-04-12 09:50:00,34.3,33.2,29.37,NE,45,3.3,6.9,96,0.04,,,0.06,WUHU216HW,2013-04-12 14:50:00,
2013-04-12 09:55:00,34.3,33.5,29.36,NE,45,0.0,6.0,97,0.04,,,0.06,WUHU216HW,2013-04-12 14:55:00,
2013-04-12 10:00:00,34.3,33.5,29.36,NNE,23,2.4,6.0,97,0.04,,,0.06,WUHU216HW,2013-04-12 15:00:00,
2013-04-12 10:05:00,34.5,33.8,29.37,NNE,23,5.1,5.1,97,0.04,,,0.08,WUHU216HW,2013-04-12 15:05:00,
2013-04-12 10:10:00,34.8,34.0,29.37,ENE,68,6.4,6.4,97,0.04,,,0.08,WUHU216HW,2013-04-12 15:10:00,
2013-04-12 10:15:00,35.4,34.6,29.37,NE,45,0.0,6.7,97,0.04,,,0.08,WUHU216HW,2013-04-12 15:15:00,
2013-04-12 10:20:00,35.9,34.8,29.37,NNW,338,6.2,7.6,96,0.06,,,0.10,WUHU216HW,2013-04-12 15:20:00,
2013-04-12 10:25:00,36.1,35.0,29.37,ENE,68,4.2,7.8,96,0.06,,,0.10,WUHU216HW,2013-04-12 15:25:00,
2013-04-12 10:31:00,36.1,35.0,29.38,NNE,23,6.2,7.8,96,0.06,,,0.10,WUHU216HW,2013-04-12 15:31:00,
2013-04-12 10:36:00,36.3,35.2,29.38,NNE,30,2.2,6.2,96,0.06,,,0.10,WUHU216HW,2013-04-12 15:36:00,
2013-04-12 10:41:00,36.3,35.2,29.39,NNE,23,5.8,5.8,96,0.04,,,0.10,WUHU216HW,2013-04-12 15:41:00,
2013-04-12 10:46:00,36.3,35.2,29.39,NNE,23,2.6,5.8,96,0.04,,,0.10,WUHU216HW,2013-04-12 15:46:00,
2013-04-12 10:51:00,36.1,34.7,29.39,NNE,23,0.0,2.6,95,0.04,,,0.10,WUHU216HW,2013-04-12 15:51:00,
2013-04-12 10:56:00,36.5,35.1,29.39,NE,45,0.0,3.1,95,0.04,,,0.10,WUHU216HW,2013-04-12 15:56:00,
2013-04-12 11:01:00,36.6,35.3,29.39,NNE,23,0.0,9.3,95,0.02,,,0.10,WUHU216HW,2013-04-12 16:01:00,
2013-04-12 11:06:00,36.5,34.8,29.39,North,8,2.7,9.3,94,0.02,,,0.10,WUHU216HW,2013-04-12 16:06:00,
2013-04-12 11:11:00,36.3,34.7,29.39,NE,45,5.5,5.5,94,0.02,,,0.10,WUHU216HW,2013-04-12 16:11:00,
2013-04-12 11:16:00,36.3,34.7,29.39,North,0,1.5,5.5,94,0.02,,,0.10,WUHU216HW,2013-04-12 16:16:00,
2013-04-12 11:21:00,36.5,34.6,29.39,NNE,23,7.6,7.6,93,0.00,,,0.10,WUHU216HW,2013-04-12 16:21:00,
2013-04-12 11:26:00,36.5,34.6,29.39,NNE,23,5.8,7.6,93,0.00,,,0.10,WUHU216HW,2013-04-12 16:26:00,
2013-04-12 11:31:00,36.6,34.5,29.39,NNE,23,0.0,5.8,92,0.02,,,0.12,WUHU216HW,2013-04-12 16:31:00,
2013-04-12 11:37:00,37.2,35.3,29.39,NNE,23,6.7,6.7,93,0.02,,,0.12,WUHU216HW,2013-04-12 16:37:00,
2013-04-12 11:42:00,37.5,35.4,29.39,NNE,23,6.4,6.7,92,0.02,,,0.12,WUHU216HW,2013-04-12 16:42:00,
2013-04-12 11:47:00,37.9,35.5,29.39,ENE,68,6.7,6.7,91,0.02,,,0.12,WUHU216HW,2013-04-12 16:47:00,
2013-04-12 11:52:00,37.9,35.2,29.39,NE,45,6.7,6.7,90,0.02,,,0.12,WUHU216HW,2013-04-12 16:52:00,
2013-04-12 11:57:00,38.1,35.4,29.39,NNE,23,4.8,6.7,90,0.02,,,0.12,WUHU216HW,2013-04-12 16:57:00,
2013-04-12 12:02:00,38.8,36.1,29.39,NE,45,4.2,6.7,90,0.02,,,0.12,WUHU216HW,2013-04-12 17:02:00,
2013-04-12 12:07:00,39.0,36.3,29.39,North,0,7.1,7.1,90,0.02,,,0.12,WUHU216HW,2013-04-12 17:07:00,
2013-04-12 12:12:00,39.0,36.0,29.39,NE,45,2.2,7.1,89,0.02,,,0.12,WUHU216HW,2013-04-12 17:12:00,
2013-04-12 12:17:00,38.8,35.8,29.40,North,0,0.0,3.8,89,0.02,,,0.12,WUHU216HW,2013-04-12 17:17:00,
2013-04-12 12:22:00,38.4,35.2,29.40,NNE,23,0.0,6.9,88,0.02,,,0.12,WUHU216HW,2013-04-12 17:22:00,
2013-04-12 12:27:00,38.8,35.5,29.40,NE,45,2.6,2.6,88,0.00,,,0.12,WUHU216HW,2013-04-12 17:27:00,
2013-04-12 12:32:00,39.3,36.3,29.40,NE,45,0.0,2.6,89,0.00,,,0.12,WUHU216HW,2013-04-12 17:32:00,
2013-04-12 12:37:00,39.5,36.2,29.40,NNE,23,2.0,2.0,88,0.00,,,0.12,WUHU216HW,2013-04-12 17:37:00,
2013-04-12 12:43:00,39.9,36.6,29.40,North,0,5.1,5.1,88,0.00,,,0.12,WUHU216HW,2013-04-12 17:43:00,
2013-04-12 12:48:00,40.1,36.5,29.40,NE,45,0.0,5.1,87,0.00,,,0.12,WUHU216HW,2013-04-12 17:48:00,
2013-04-12 12:53:00,40.4,36.8,29.40,NNE,23,0.0,0.0,87,0.00,,,0.12,WUHU216HW,2013-04-12 17:53:00,
2013-04-12 12:58:00,40.1,36.2,29.40,NNE,23,0.0,0.0,86,0.00,,,0.12,WUHU216HW,2013-04-12 17:58:00,
2013-04-12 13:03:00,39.3,35.6,29.40,NE,45,0.0,0.0,86,0.00,,,0.12,WUHU216HW,2013-04-12 18:03:00,
2013-04-12 13:08:00,39.0,35.1,29.40,NNE,23,0.0,0.0,86,0.00,,,0.12,WUHU216HW,2013-04-12 18:08:00,
2013-04-12 13:13:00,39.0,35.1,29.41,NE,45,0.0,0.0,86,0.00,,,0.12,WUHU216HW,2013-04-12 18:13:00,
2013-04-12 13:19:00,39.0,35.1,29.41,NNE,23,0.0,0.0,86,0.00,,,0.12,WUHU216HW,2013-04-12 18:19:00,
2013-04-12 13:24:00,38.8,34.9,29.41,NNE,23,1.7,2.9,86,0.00,,,0.12,WUHU216HW,2013-04-12 18:24:00,
2013-04-12 13:29:00,38.8,34.9,29.41,NNE,23,0.0,2.9,86,0.00,,,0.12,WUHU216HW,2013-04-12 18:29:00,
2013-04-12 13:31:00,38.8,34.9,29.42,NNE,23,0.0,1.7,86,0.00,,,0.12,WUHU216HW,2013-04-12 18:31:00,
2013-04-12 13:37:00,39.0,35.1,29.42,North,0,0.0,1.1,86,0.00,,,0.12,WUHU216HW,2013-04-12 18:37:00,
2013-04-12 13:44:00,39.5,35.6,29.42,NE,45,0.0,1.1,86,0.00,,,0.12,WUHU216HW,2013-04-12 18:44:00,
2013-04-12 13:50:00,39.9,36.0,29.42,North,0,0.0,0.0,86,0.00,,,0.12,WUHU216HW,2013-04-12 18:50:00,
2013-04-12 13:57:00,40.2,36.3,29.42,NNE,23,0.0,0.0,86,0.00,,,0.12,WUHU216HW,2013-04-12 18:57:00,
2013-04-12 14:03:00,40.6,36.4,29.42,NNE,23,1.1,1.1,85,0.00,,,0.12,WUHU216HW,2013-04-12 19:03:00,
2013-04-12 14:10:00,40.8,36.2,29.42,WNW,293,0.0,1.1,84,0.00,,,0.12,WUHU216HW,2013-04-12 19:10:00,
2013-04-12 14:26:00,40.8,35.9,29.43,NNE,23,0.0,0.0,83,0.00,,,0.12,WUHU216HW,2013-04-12 19:26:00,
2013-04-12 14:31:00,40.4,35.6,29.44,West,270,0.0,0.0,83,0.00,,,0.12,WUHU216HW,2013-04-12 19:31:00,
2013-04-12 14:36:00,40.2,35.4,29.44,West,270,0.0,0.0,83,0.00,,,0.12,WUHU216HW,2013-04-12 19:36:00,
2013-04-12 14:41:00,40.2,35.7,29.44,WSW,248,0.0,0.0,84,0.00,,,0.12,WUHU216HW,2013-04-12 19:41:00,
2013-04-12 14:47:00,40.1,35.7,29.44,WSW,248,0.0,0.0,84,0.00,,,0.12,WUHU216HW,2013-04-12 19:47:00,
2013-04-12 14:52:00,39.9,35.1,29.45,West,270,0.0,0.0,83,0.00,,,0.12,WUHU216HW,2013-04-12 19:52:00,
2013-04-12 14:57:00,39.9,35.1,29.45,West,270,0.0,0.0,83,0.00,,,0.12,WUHU216HW,2013-04-12 19:57:00,
2013-04-12 15:02:00,39.9,35.4,29.45,West,270,0.0,0.0,84,0.00,,,0.12,WUHU216HW,2013-04-12 20:02:00,
2013-04-12 15:07:00,40.1,35.6,29.45,West,270,0.0,0.0,84,0.00,,,0.12,WUHU216HW,2013-04-12 20:07:00,
2013-04-12 15:12:00,40.2,35.4,29.46,West,270,0.0,0.0,83,0.00,,,0.12,WUHU216HW,2013-04-12 20:12:00,
2013-04-12 15:17:00,40.1,35.3,29.46,West,270,0.0,0.0,83,0.00,,,0.12,WUHU216HW,2013-04-12 20:17:00,
2013-04-12 15:22:00,39.9,35.1,29.46,WSW,248,0.0,0.0,83,0.00,,,0.12,WUHU216HW,2013-04-12 20:22:00,
2013-04-12 15:27:00,40.1,35.3,29.46,NW,315,0.0,0.0,83,0.00,,,0.12,WUHU216HW,2013-04-12 20:27:00,
2013-04-12 15:32:00,40.8,35.9,29.45,WNW,293,0.0,0.0,83,0.00,,,0.12,WUHU216HW,2013-04-12 20:32:00,
2013-04-12 15:37:00,41.5,36.3,29.46,WNW,293,0.0,0.0,82,0.00,,,0.12,WUHU216HW,2013-04-12 20:37:00,
2013-04-12 15:42:00,41.7,36.2,29.46,WNW,293,0.0,0.0,81,0.00,,,0.12,WUHU216HW,2013-04-12 20:42:00,
2013-04-12 15:47:00,41.9,36.4,29.46,NE,45,0.0,0.0,81,0.00,,,0.12,WUHU216HW,2013-04-12 20:47:00,
2013-04-12 15:52:00,41.7,36.2,29.46,NW,315,0.0,0.0,81,0.00,,,0.12,WUHU216HW,2013-04-12 20:52:00,
2013-04-12 15:58:00,41.5,35.7,29.46,WSW,248,0.0,0.0,80,0.00,,,0.12,WUHU216HW,2013-04-12 20:58:00,
2013-04-12 16:03:00,41.1,35.4,29.46,WNW,293,0.0,0.0,80,0.00,,,0.12,WUHU216HW,2013-04-12 21:03:00,
2013-04-12 16:08:00,40.8,35.3,29.46,WNW,293,0.0,0.0,81,0.00,,,0.12,WUHU216HW,2013-04-12 21:08:00,
2013-04-12 16:13:00,40.8,35.3,29.46,NW,315,0.0,0.0,81,0.00,,,0.12,WUHU216HW,2013-04-12 21:13:00,
2013-04-12 16:18:00,40.6,35.2,29.46,WNW,293,0.0,0.0,81,0.00,,,0.12,WUHU216HW,2013-04-12 21:18:00,
2013-04-12 16:23:00,40.8,35.6,29.46,WNW,293,0.0,0.0,82,0.00,,,0.12,WUHU216HW,2013-04-12 21:23:00,
2013-04-12 16:28:00,41.0,35.8,29.47,West,270,0.0,0.0,82,0.00,,,0.12,WUHU216HW,2013-04-12 21:28:00,
2013-04-12 16:33:00,40.8,35.6,29.47,West,270,0.0,0.0,82,0.00,,,0.12,WUHU216HW,2013-04-12 21:33:00,
2013-04-12 16:38:00,40.8,35.6,29.47,West,270,0.0,0.0,82,0.00,,,0.12,WUHU216HW,2013-04-12 21:38:00,
2013-04-12 16:43:00,40.6,35.5,29.47,NNE,23,0.0,0.0,82,0.00,,,0.12,WUHU216HW,2013-04-12 21:43:00,
2013-04-12 16:48:00,40.6,35.5,29.47,WNW,293,0.0,0.0,82,0.00,,,0.12,WUHU216HW,2013-04-12 21:48:00,
2013-04-12 16:53:00,40.4,35.3,29.47,WNW,293,0.0,0.0,82,0.00,,,0.12,WUHU216HW,2013-04-12 21:53:00,
2013-04-12 16:58:00,40.1,35.0,29.48,East,90,0.0,0.0,82,0.00,,,0.12,WUHU216HW,2013-04-12 21:58:00,
2013-04-12 17:03:00,39.3,34.3,29.48,WNW,293,0.0,0.0,82,0.00,,,0.12,WUHU216HW,2013-04-12 22:03:00,
2013-04-12 17:08:00,39.0,34.0,29.48,WNW,293,0.0,0.0,82,0.00,,,0.12,WUHU216HW,2013-04-12 22:08:00,
2013-04-12 17:13:00,38.8,34.1,29.48,WNW,293,0.0,0.0,83,0.00,,,0.12,WUHU216HW,2013-04-12 22:13:00,
2013-04-12 17:18:00,38.8,34.1,29.48,WNW,293,0.0,0.0,83,0.00,,,0.12,WUHU216HW,2013-04-12 22:18:00,
2013-04-12 17:24:00,38.8,34.1,29.49,WNW,293,0.0,0.0,83,0.00,,,0.12,WUHU216HW,2013-04-12 22:24:00,
2013-04-12 17:29:00,38.8,34.1,29.49,WNW,293,0.0,0.0,83,0.00,,,0.12,WUHU216HW,2013-04-12 22:29:00,
2013-04-12 17:34:00,38.4,33.7,29.49,WNW,293,0.0,0.0,83,0.00,,,0.12,WUHU216HW,2013-04-12 22:34:00,
2013-04-12 17:39:00,38.1,33.6,29.49,West,270,0.0,0.0,84,0.00,,,0.12,WUHU216HW,2013-04-12 22:39:00,
2013-04-12 17:44:00,37.5,33.1,29.50,West,270,0.0,0.0,84,0.00,,,0.12,WUHU216HW,2013-04-12 22:44:00,
2013-04-12 17:49:00,36.8,32.6,29.50,WNW,293,0.0,0.0,84,0.00,,,0.12,WUHU216HW,2013-04-12 22:49:00,
2013-04-12 17:54:00,36.1,31.7,29.50,WNW,293,0.0,0.0,84,0.00,,,0.12,WUHU216HW,2013-04-12 22:54:00,
2013-04-12 17:59:00,35.7,31.6,29.51,WNW,293,0.0,0.0,85,0.00,,,0.12,WUHU216HW,2013-04-12 22:59:00,
2013-04-12 18:04:00,35.4,31.2,29.51,WNW,293,0.0,0.0,85,0.00,,,0.12,WUHU216HW,2013-04-12 23:04:00,
2013-04-12 18:09:00,35.2,31.3,29.50,WNW,293,0.0,0.0,86,0.00,,,0.12,WUHU216HW,2013-04-12 23:09:00,
2013-04-12 18:14:00,35.2,31.3,29.51,WNW,293,0.0,0.0,86,0.00,,,0.12,WUHU216HW,2013-04-12 23:14:00,
2013-04-12 18:19:00,34.8,31.0,29.51,WNW,293,0.0,0.0,86,0.00,,,0.12,WUHU216HW,2013-04-12 23:19:00,
2013-04-12 18:24:00,34.5,30.6,29.52,WNW,293,0.0,0.0,86,0.00,,,0.12,WUHU216HW,2013-04-12 23:24:00,
2013-04-12 18:29:00,34.5,30.6,29.52,WNW,293,0.0,0.0,86,0.00,,,0.12,WUHU216HW,2013-04-12 23:29:00,
2013-04-12 18:34:00,34.3,30.4,29.52,WNW,293,0.0,0.0,86,0.00,,,0.12,WUHU216HW,2013-04-12 23:34:00,
2013-04-12 18:39:00,34.3,30.4,29.51,WNW,293,0.0,0.0,86,0.00,,,0.12,WUHU216HW,2013-04-12 23:39:00,
2013-04-12 18:45:00,34.3,30.4,29.51,WNW,293,0.0,0.0,86,0.00,,,0.12,WUHU216HW,2013-04-12 23:45:00,
2013-04-12 18:50:00,34.3,30.7,29.52,WNW,293,0.0,0.0,87,0.00,,,0.12,WUHU216HW,2013-04-12 23:50:00,
2013-04-12 18:55:00,34.3,30.7,29.52,WSW,248,0.0,0.0,87,0.00,,,0.12,WUHU216HW,2013-04-12 23:55:00,
2013-04-12 19:00:00,34.1,30.7,29.52,West,270,0.0,0.0,87,0.00,,,0.12,WUHU216HW,2013-04-13 00:00:00,
2013-04-12 19:05:00,33.9,30.4,29.52,West,270,0.0,0.0,87,0.00,,,0.12,WUHU216HW,2013-04-13 00:05:00,
2013-04-12 19:10:00,33.6,30.3,29.53,West,270,0.0,0.0,88,0.00,,,0.12,WUHU216HW,2013-04-13 00:10:00,
2013-04-12 19:15:00,33.4,30.2,29.53,SSW,203,0.0,0.0,88,0.00,,,0.12,WUHU216HW,2013-04-13 00:15:00,
2013-04-12 19:20:00,33.2,30.0,29.52,WNW,293,0.0,2.0,88,0.00,,,0.12,WUHU216HW,2013-04-13 00:20:00,
2013-04-12 19:25:00,33.0,30.1,29.53,WSW,248,0.0,2.0,89,0.00,,,0.12,WUHU216HW,2013-04-13 00:25:00,
2013-04-12 19:30:00,33.0,30.1,29.52,West,270,6.0,6.0,89,0.00,,,0.12,WUHU216HW,2013-04-13 00:30:00,
2013-04-12 19:35:00,33.0,30.0,29.53,WNW,293,0.0,6.0,89,0.00,,,0.12,WUHU216HW,2013-04-13 00:35:00,
2013-04-12 19:40:00,32.9,30.0,29.53,WNW,293,0.0,0.0,89,0.00,,,0.12,WUHU216HW,2013-04-13 00:40:00,
2013-04-12 19:45:00,32.9,30.0,29.52,NW,315,0.0,0.0,89,0.00,,,0.12,WUHU216HW,2013-04-13 00:45:00,
2013-04-12 19:50:00,32.9,30.2,29.53,WSW,248,1.7,1.7,90,0.00,,,0.12,WUHU216HW,2013-04-13 00:50:00,
2013-04-12 19:55:00,33.0,30.4,29.53,WNW,293,0.0,1.7,90,0.00,,,0.12,WUHU216HW,2013-04-13 00:55:00,
2013-04-12 20:00:00,33.0,30.4,29.53,WNW,293,0.0,0.4,90,0.00,,,0.12,WUHU216HW,2013-04-13 01:00:00,
2013-04-12 20:05:00,33.0,30.4,29.54,WSW,248,0.0,0.0,90,0.00,,,0.12,WUHU216HW,2013-04-13 01:05:00,
2013-04-12 20:10:00,32.9,30.2,29.54,WNW,293,0.0,0.0,90,0.00,,,0.12,WUHU216HW,2013-04-13 01:10:00,
2013-04-12 20:15:00,32.9,30.2,29.54,WSW,248,0.0,2.2,90,0.00,,,0.12,WUHU216HW,2013-04-13 01:15:00,
2013-04-12 20:20:00,32.9,30.5,29.54,West,270,0.0,2.2,91,0.00,,,0.12,WUHU216HW,2013-04-13 01:20:00,
2013-04-12 20:26:00,32.9,30.5,29.54,WNW,293,0.0,0.0,91,0.00,,,0.12,WUHU216HW,2013-04-13 01:26:00,
2013-04-12 20:31:00,32.7,30.3,29.54,WNW,293,0.0,0.0,91,0.00,,,0.12,WUHU216HW,2013-04-13 01:31:00,
2013-04-12 20:36:00,32.7,30.3,29.54,WNW,293,0.0,0.0,91,0.00,,,0.12,WUHU216HW,2013-04-13 01:36:00,
2013-04-12 20:41:00,32.7,30.3,29.54,WNW,293,0.0,0.0,91,0.00,,,0.12,WUHU216HW,2013-04-13 01:41:00,
2013-04-12 20:46:00,32.7,30.3,29.54,WNW,293,0.0,0.0,91,0.00,,,0.12,WUHU216HW,2013-04-13 01:46:00,
2013-04-12 20:51:00,32.7,30.3,29.54,West,270,0.0,0.0,91,0.00,,,0.12,WUHU216HW,2013-04-13 01:51:00,
2013-04-12 20:56:00,32.7,30.3,29.55,West,270,0.0,0.0,91,0.00,,,0.12,WUHU216HW,2013-04-13 01:56:00,
2013-04-12 21:01:00,32.7,30.3,29.55,WNW,293,0.0,0.0,91,0.00,,,0.12,WUHU216HW,2013-04-13 02:01:00,
2013-04-12 21:06:00,32.7,30.3,29.55,WNW,293,0.0,0.0,91,0.00,,,0.12,WUHU216HW,2013-04-13 02:06:00,
2013-04-12 21:11:00,32.7,30.3,29.55,WNW,293,0.0,0.0,91,0.02,,,0.14,WUHU216HW,2013-04-13 02:11:00,
2013-04-12 21:16:00,32.7,30.3,29.55,West,270,0.0,0.0,91,0.02,,,0.14,WUHU216HW,2013-04-13 02:16:00,
2013-04-12 21:21:00,32.5,30.2,29.55,West,270,0.0,0.0,91,0.02,,,0.14,WUHU216HW,2013-04-13 02:21:00,
2013-04-12 21:26:00,32.5,30.2,29.55,West,270,0.0,0.0,91,0.02,,,0.14,WUHU216HW,2013-04-13 02:26:00,
2013-04-12 21:32:00,32.5,30.2,29.55,West,270,0.0,0.0,91,0.02,,,0.14,WUHU216HW,2013-04-13 02:32:00,
2013-04-12 21:37:00,32.5,30.2,29.55,West,270,0.0,0.0,91,0.02,,,0.14,WUHU216HW,2013-04-13 02:37:00,
2013-04-12 21:42:00,32.5,30.2,29.55,WSW,248,0.0,0.0,91,0.02,,,0.14,WUHU216HW,2013-04-13 02:42:00,
2013-04-12 21:47:00,32.5,30.2,29.56,WSW,248,0.0,0.0,91,0.02,,,0.14,WUHU216HW,2013-04-13 02:47:00,
2013-04-12 21:52:00,32.5,30.2,29.56,WSW,248,0.0,0.0,91,0.02,,,0.14,WUHU216HW,2013-04-13 02:52:00,
2013-04-12 21:57:00,32.5,30.2,29.55,WSW,248,0.0,0.0,91,0.02,,,0.14,WUHU216HW,2013-04-13 02:57:00,
2013-04-12 22:02:00,32.5,30.2,29.55,WSW,248,0.0,0.0,91,0.02,,,0.14,WUHU216HW,2013-04-13 03:02:00,
2013-04-12 22:07:00,32.5,30.2,29.55,WNW,293,0.0,0.0,91,0.02,,,0.14,WUHU216HW,2013-04-13 03:07:00,
2013-04-12 22:12:00,32.3,30.3,29.55,WNW,293,0.0,0.0,92,0.00,,,0.14,WUHU216HW,2013-04-13 03:12:00,
2013-04-12 22:17:00,32.3,30.3,29.56,WNW,293,0.0,0.0,92,0.00,,,0.14,WUHU216HW,2013-04-13 03:17:00,
2013-04-12 22:22:00,32.5,30.4,29.56,WNW,293,0.0,0.0,92,0.00,,,0.14,WUHU216HW,2013-04-13 03:22:00,
2013-04-12 22:27:00,32.5,30.4,29.56,SW,225,0.0,0.0,92,0.00,,,0.14,WUHU216HW,2013-04-13 03:27:00,
2013-04-12 22:33:00,32.5,30.4,29.55,West,270,0.0,0.0,92,0.00,,,0.14,WUHU216HW,2013-04-13 03:33:00,
2013-04-12 22:38:00,32.5,30.4,29.56,WSW,248,0.0,0.0,92,0.00,,,0.14,WUHU216HW,2013-04-13 03:38:00,
2013-04-12 22:43:00,32.3,30.3,29.56,West,270,0.0,0.0,92,0.00,,,0.14,WUHU216HW,2013-04-13 03:43:00,
2013-04-12 22:48:00,32.3,30.3,29.56,WNW,293,0.0,0.0,92,0.00,,,0.14,WUHU216HW,2013-04-13 03:48:00,
2013-04-12 22:53:00,32.3,30.3,29.55,West,270,0.0,0.0,92,0.00,,,0.14,WUHU216HW,2013-04-13 03:53:00,
2013-04-12 22:58:00,32.3,30.3,29.55,West,270,0.0,0.0,92,0.00,,,0.14,WUHU216HW,2013-04-13 03:58:00,
2013-04-12 23:00:00,32.3,30.3,29.55,West,270,0.0,0.0,92,0.00,,,0.14,WUHU216HW,2013-04-13 04:00:00,
2013-04-12 23:01:00,32.3,30.3,29.55,West,270,0.0,0.0,92,0.00,,,0.14,WUHU216HW,2013-04-13 04:01:00,
2013-04-12 23:06:00,32.3,30.3,29.56,SW,225,0.0,0.0,92,0.00,,,0.14,WUHU216HW,2013-04-13 04:06:00,
2013-04-12 23:12:00,32.3,30.3,29.55,WSW,248,0.0,0.0,92,0.00,,,0.14,WUHU216HW,2013-04-13 04:12:00,
2013-04-12 23:17:00,32.3,30.3,29.56,West,270,0.0,0.0,92,0.00,,,0.14,WUHU216HW,2013-04-13 04:17:00,
2013-04-12 23:22:00,32.3,30.3,29.56,SW,225,0.0,0.0,92,0.00,,,0.14,WUHU216HW,2013-04-13 04:22:00,
2013-04-12 23:27:00,32.3,30.3,29.56,WSW,248,0.0,0.0,92,0.00,,,0.14,WUHU216HW,2013-04-13 04:27:00,
2013-04-12 23:32:00,32.1,30.1,29.56,West,270,0.0,0.0,92,0.00,,,0.14,WUHU216HW,2013-04-13 04:32:00,
2013-04-12 23:37:00,32.3,30.3,29.56,WSW,248,0.0,0.0,92,0.00,,,0.14,WUHU216HW,2013-04-13 04:37:00,
2013-04-12 23:42:00,32.3,30.3,29.56,SSW,203,0.0,0.0,92,0.00,,,0.14,WUHU216HW,2013-04-13 04:42:00,
2013-04-12 23:47:00,32.1,30.1,29.56,WSW,248,0.0,0.0,92,0.00,,,0.14,WUHU216HW,2013-04-13 04:47:00,
2013-04-12 23:52:00,32.1,30.1,29.56,SW,225,0.0,0.0,92,0.00,,,0.14,WUHU216HW,2013-04-13 04:52:00,
2013-04-12 23:57:00,32.3,30.3,29.56,WSW,248,0.0,0.0,92,0.00,,,0.14,WUHU216HW,2013-04-13 04:57:00,